Weather History for Minneapolis Flying Cloud, MN

Change the Weather History Date:

Friday, August 2, 2013

  Actual Average Record
Temperature  
Mean Temperature 70 °F -  
Max Temperature 78 °F 80 °F 95 °F (2005)
Min Temperature 62 °F 61 °F 55 °F (2002)
Cooling Degree Days 4    
Growing Degree Days 20 (Base 50)    
Moisture  
Dew Point 54 °F    
Average Humidity 60    
Maximum Humidity 84    
Minimum Humidity 38    
Precipitation  
Precipitation 0.00 in - - ()
Sea Level Pressure  
Sea Level Pressure 29.93 in    
Wind  
Wind Speed 5 mph (NNW)    
Max Wind Speed 9 mph    
Max Gust Speed -    
Visibility 10 miles    
Events      
Averages and records for this station are not official NWS values.
T = Trace of Precipitation, MM = Missing Value Source: NWS Daily Summary

Daily Weather History Graph

Daily Weather History Graph

Search for Another Location

Airport:

Trip Planner

Search our weather history database for the weather conditions in past years. The results will help you decide how hot, cold, wet, or windy it might be!

Date:

Astronomy

Aug. 02, 2013 Rise Set
Actual Time 6:01 AM CDT 8:38 PM CDT
Civil Twilight 5:27 AM CDT 9:11 PM CDT
Nautical Twilight 4:45 AM CDT 9:53 PM CDT
Astronomical Twilight 3:57 AM CDT 10:41 PM CDT
Moon 2:20 AM CDT (8/2) 5:38 PM CDT (8/2)
Length of Visible Light 15h 43m
Length of Day
14h 37m
Waning Crescent, 15% of the Moon is Illuminated
Aug 2
Waning Crescent
Aug 6
New
Aug 14
First Quarter
Aug 20
Full
Aug 28
Last Quarter

Hourly Weather History & Observations

Time (CDT) Temp. Dew Point Humidity Pressure Visibility Wind Dir Wind Speed Gust Speed Precip Events Conditions
12:53 AM 66.9 °F 59.0 °F 76% 29.85 in 10.0 mi NNW 4.6 mph - N/A   Clear
1:53 AM 66.0 °F 57.0 °F 73% 29.85 in 10.0 mi NNW 4.6 mph - N/A   Clear
2:53 AM 62.1 °F 57.0 °F 84% 29.86 in 10.0 mi Calm Calm - N/A   Clear
3:53 AM 62.1 °F 55.9 °F 80% 29.86 in 10.0 mi NNW 4.6 mph - N/A   Clear
4:53 AM 63.0 °F 55.0 °F 75% 29.87 in 10.0 mi NNW 5.8 mph - N/A   Clear
5:53 AM 62.1 °F 55.0 °F 78% 29.88 in 10.0 mi NNW 6.9 mph - N/A   Clear
6:53 AM 63.0 °F 55.0 °F 75% 29.89 in 10.0 mi NNW 5.8 mph - N/A   Clear
7:53 AM 66.0 °F 55.9 °F 70% 29.90 in 10.0 mi North 6.9 mph - N/A   Clear
8:53 AM 69.1 °F 57.0 °F 65% 29.91 in 10.0 mi North 5.8 mph - N/A   Clear
9:53 AM 73.0 °F 57.0 °F 57% 29.92 in 10.0 mi NNW 8.1 mph - N/A   Clear
10:53 AM 73.0 °F 55.0 °F 53% 29.93 in 10.0 mi NNW 6.9 mph - N/A   Clear
11:53 AM 75.0 °F 55.0 °F 50% 29.94 in 10.0 mi NNW 8.1 mph - N/A   Clear
12:53 PM 75.0 °F 54.0 °F 48% 29.93 in 10.0 mi NNW 9.2 mph - N/A   Clear
1:53 PM 77.0 °F 53.1 °F 43% 29.94 in 9.0 mi North 8.1 mph - N/A   Clear
2:53 PM 75.9 °F 52.0 °F 43% 29.95 in 10.0 mi Variable 3.5 mph - N/A   Clear
3:53 PM 75.9 °F 48.9 °F 38% 29.95 in 10.0 mi NW 9.2 mph - N/A   Clear
4:53 PM 75.9 °F 51.1 °F 42% 29.95 in 10.0 mi NNW 6.9 mph - N/A   Clear
5:53 PM 77.0 °F 51.1 °F 40% 29.96 in 10.0 mi WNW 5.8 mph - N/A   Partly Cloudy
6:53 PM 75.0 °F 51.1 °F 43% 29.96 in 10.0 mi NW 8.1 mph - N/A   Clear
7:53 PM 72.0 °F 51.1 °F 48% 29.98 in 10.0 mi West 3.5 mph - N/A   Clear
8:53 PM 69.1 °F 53.1 °F 57% 29.98 in 10.0 mi NNW 3.5 mph - N/A   Clear
9:53 PM 66.9 °F 53.1 °F 61% 30.01 in 10.0 mi NNW 3.5 mph - N/A   Clear
10:53 PM 64.0 °F 54.0 °F 70% 30.03 in 10.0 mi Calm Calm - N/A   Clear
11:53 PM 63.0 °F 55.0 °F 75% 30.03 in 10.0 mi NW 3.5 mph - N/A   Clear